Regional Weather Roundup
Issued by NWS

Home | Current Version | Previous Version | Text Only | Print | Product List | Glossary On
Versions: 1 2 3 4 5 6 7 8 9 10 11 12 13 14 15 16 17 18 19 20 21 22 23 24 25 26 27
000
ASUS46 KSEW 181110
RWRWA

WASHINGTON REGIONAL WEATHER ROUNDUP
NATIONAL WEATHER SERVICE SEATTLE WA
300 AM PST WED JAN 18 2017

NOTE:"FAIR" INDICATES FEW OR NO CLOUDS BELOW 12,000 FEET WITH NO
SIGNIFICANT WEATHER AND/OR OBSTRUCTIONS TO VISIBILITY.

WAZ507-509-555>559-181200-
SEATTLE, TACOMA, EVERETT, AND VICINITY

CITY           SKY/WX    TMP DP  RH WIND       PRES   REMARKS
EVERETT        CLOUDY    47  46  97 SE18G28   29.41F
BOEING FIELD   LGT RAIN  45  44  97 SE10      29.45F
RENTON         LGT RAIN  44  43  96 SE7       29.46F FOG
SEATAC AIRPORT LGT RAIN  46  45  96 SE8       29.45F
JBLM-MCCHORD   LGT RAIN  49  49 100 SE9       29.44F
PUYALLUP       RAIN      50  50 100 CALM      29.46S
BREMERTON      CLOUDY    46  46 100 S7        29.48F
JBLM-FT LEWIS  LGT RAIN  49  49 100 S7        29.43F
TACOMA NARROWS RAIN      49  49 100 S5        29.45F FOG
$$

WAZ001-503-506-510-514-515-181200-
NORTH INTERIOR

CITY           SKY/WX    TMP DP  RH WIND       PRES   REMARKS
BELLINGHAM     CLOUDY    54  47  77 SE24G31   29.35F
FRIDAY HARBOR  CLOUDY    49  45  86 SE15G23   29.36R
EASTSOUND      CLOUDY    50  46  87 S15G24    29.33F
PORT ANGELES   CLOUDY    50  44  80 W9G18     29.32S
EDIZ HOOK      FAIR      46  44  90 CALM      29.33R
PORT TOWNSEND  CLOUDY    50  46  87 SE14G22   29.37S
NAS WHIDBEY    NOT AVBL
ARLINGTON      NOT AVBL
BURLINGTON     CLOUDY    52  46  82 SE18G28   29.39F
$$

WAZ020-022-039-040-504-511-512-181200-
SOUTHWEST INTERIOR

CITY           SKY/WX    TMP DP  RH WIND       PRES   REMARKS
SHELTON        LGT RAIN  45  43  93 CALM      29.41F FOG
OLYMPIA        RAIN      48  48 100 SW9       29.44F FOG
CHEHALIS       LGT RAIN  46  46 100 S7        29.46F
KELSO          CLOUDY    37  36  96 SE7       29.51R
VANCOUVER      LGT RAIN  34  32  92 E12       29.54S FOG     WCI  25
SCAPPOOSE, OR  RAIN      34  34 100 VRB5      29.54S FOG
PORTLAND, OR   LGT RAIN  34  32  92 SE15      29.55R FOG     WCI  24
$$

WAZ021-516-517-181200-
WASHINGTON COAST

CITY           SKY/WX    TMP DP  RH WIND       PRES   REMARKS
FORKS          LGT RAIN  49  49 100 S13G23    29.32F FOG
HOQUIAM        LGT RAIN  50  50 100 S21       29.39F FOG
ASTORIA, OR    LGT RAIN  55  49  80 S30G44    29.40F
$$

WAZ019-023-024-040-567>569-181200-
CASCADE MOUNTAINS AND COLUMBIA GORGE

CITY           SKY/WX    TMP DP  RH WIND       PRES   REMARKS
STAMPEDE PASS  NOT AVBL
TROUTDALE, OR  LGT RAIN  34  32  92 E18G29    29.55R FOG     WCI  23
THE DALLES, OR CLOUDY    23  20  88 CALM      29.77F
$$

WAZ026-027-041>044-520-521-181200-
EAST SLOPES

CITY           SKY/WX    TMP DP  RH WIND       PRES   REMARKS
OMAK           FLURRIES  23  18  81 CALM      29.75F
WENATCHEE      CLOUDY    19  16  88 NW6       29.74F
ELLENSBURG     CLOUDY    23  18  81 CALM      29.68F
YAKIMA         FRZ RAIN  24  19  81 CALM      29.72F
$$

WAZ028-034-035-181200-
COLUMBIA BASIN

CITY           SKY/WX    TMP DP  RH WIND       PRES   REMARKS
EPHRATA        CLOUDY    26  21  81 CALM      29.72F
MOSES LAKE     CLOUDY    26  23  88 W6        29.74F
PASCO          FRZ RAIN  23  21  92 NW12      29.78F WCI  12
HERMISTON, OR  CLOUDY    21  18  88 W5        29.73F FOG
$$

WAZ036>038-181200-
NORTHEAST WASHINGTON

CITY           SKY/WX    TMP DP  RH WIND       PRES   REMARKS
SPOKANE GEIGER LGT RAIN  34  31  88 SE14      29.71F FOG     WCI  25
SPOKANE FELTS  LGT RAIN  33  33 100 N3        29.74F FOG
FAIRCHILD AFB  LGT RAIN  33  33 100 SE9       29.69F
COEURDALENE,ID LGT SNOW  30  29  96 E3        29.75F FOG
DEER PARK      LGT SNOW  31  28  89 CALM      29.74F FOG
$$

WAZ029>033-181200-
SOUTHEAST WASHINGTON

CITY           SKY/WX    TMP DP  RH WIND       PRES   REMARKS
PULLMAN        LGT RAIN  33  27  78 SE22G32   29.77F WCI  21
LEWISTON, ID   CLOUDY    36  27  69 E15       29.82F
WALLA WALLA    CLOUDY    25  23  92 NW3       29.70F FOG
PENDLETON, OR  CLOUDY    24  23  96 NW8       29.66F FOG
$$




USA.gov is the U.S. government's official web portal to all federal, state and local government web resources and services.